Location: Gad�tanya
(48.0500°N, 20.8500°E)
Time: 23:14:45
(UTC+00:00)

COSMOS 2455 - Pass Details

Date: 05 July 2020
Orbit: 898 x 911 km, 67.1° (Epoch: 05 August)

Event Time Altitude Azimuth Distance (km) Brightness Sun altitude
Rises 23:27:54 0° 321° (NW) 3,552 6.5 -18.5°
Reaches altitude 10° 23:30:32 10° 315° (NW) 2,607 5.7 -18.4°
Maximum altitude 23:36:10 42° 247° (WSW) 1,281 3.3 -18.2°
Enters shadow 23:38:24 30° 201° (SSW) 1,566 3.5 -18.1°
